Precipitable_Water
1.26 1.21 1.18 1.15 1.13 1.09 1.06 0.99 0.88 0.76 0.64 0.61 0.59 0.60 0.61 0.60 0.60 0.60 0.60 0.58 0.58 0.56 0.54 0.52 0.51 0.48 0.47 0.48 0.46 0.48 0.54 0.59 0.65 0.68 0.68 0.67 0.68 0.67 0.66 0.64 0.61 0.60 0.59 0.56 0.58 0.56 0.56 0.56 0.57 0.59 0.60 0.55 0.56 0.58 0.60 0.66 0.72 0.76 0.81 0.86 0.88 0.94 0.94 0.91 0.85 0.86 1.00 1.15 1.16 1.18 1.28 1.32 1.32 1.41 1.41 1.47 1.53 1.64 1.76 1.86 1.96 2.05 2.05 2.08 2.11
1.20 1.17 1.15 1.12 1.09 1.05 0.97 0.85 0.71 0.63 0.58 0.58 0.57 0.57 0.56 0.57 0.59 0.59 0.56 0.56 0.55 0.53 0.51 0.50 0.47 0.45 0.46 0.48 0.50 0.52 0.56 0.60 0.64 0.66 0.64 0.64 0.64 0.65 0.62 0.60 0.57 0.55 0.53 0.51 0.52 0.52 0.52 0.52 0.53 0.57 0.62 0.58 0.59 0.57 0.57 0.58 0.61 0.65 0.70 0.75 0.79 0.84 0.94 0.89 0.87 0.86 0.85 1.03 1.07 1.18 1.18 1.24 1.16 1.31 1.30 1.34 1.40 1.47 1.54 1.66 1.81 1.98 2.00 2.03 2.03
1.17 1.15 1.12 1.08 1.03 0.94 0.81 0.69 0.63 0.59 0.56 0.56 0.54 0.54 0.53 0.54 0.55 0.53 0.52 0.52 0.53 0.52 0.51 0.48 0.44 0.40 0.44 0.48 0.52 0.53 0.57 0.60 0.62 0.62 0.61 0.60 0.59 0.59 0.59 0.57 0.55 0.53 0.52 0.52 0.52 0.52 0.50 0.49 0.50 0.54 0.59 0.57 0.60 0.61 0.62 0.60 0.61 0.59 0.62 0.70 0.74 0.79 0.86 0.90 0.87 0.83 0.84 0.89 1.01 1.03 1.09 1.14 1.11 1.14 1.23 1.30 1.35 1.39 1.40 1.46 1.58 1.75 1.90 2.01 2.04
1.15 1.12 1.07 0.99 0.90 0.78 0.69 0.64 0.60 0.58 0.57 0.56 0.54 0.53 0.51 0.50 0.52 0.51 0.52 0.52 0.51 0.51 0.50 0.47 0.41 0.38 0.42 0.48 0.54 0.56 0.59 0.61 0.61 0.61 0.59 0.57 0.56 0.56 0.57 0.57 0.57 0.55 0.52 0.50 0.50 0.50 0.49 0.47 0.48 0.53 0.56 0.55 0.59 0.63 0.66 0.65 0.62 0.61 0.61 0.66 0.70 0.74 0.81 0.85 0.90 0.87 0.88 0.83 0.93 0.94 1.02 1.04 1.09 1.15 1.18 1.23 1.27 1.31 1.34 1.39 1.48 1.58 1.75 1.84 1.93
1.10 1.04 0.96 0.84 0.76 0.70 0.65 0.61 0.59 0.58 0.56 0.55 0.52 0.51 0.51 0.53 0.53 0.51 0.53 0.52 0.51 0.48 0.46 0.45 0.41 0.37 0.39 0.47 0.54 0.58 0.61 0.62 0.60 0.59 0.59 0.58 0.54 0.52 0.54 0.56 0.54 0.53 0.50 0.48 0.47 0.47 0.47 0.46 0.47 0.50 0.53 0.52 0.56 0.63 0.66 0.66 0.66 0.64 0.63 0.66 0.68 0.74 0.77 0.79 0.83 0.88 0.85 0.83 0.86 0.94 0.98 0.99 1.03 1.06 1.13 1.11 1.14 1.21 1.28 1.30 1.34 1.39 1.53 1.75 1.81
1.02 0.94 0.83 0.73 0.70 0.66 0.61 0.60 0.58 0.56 0.55 0.54 0.52 0.51 0.52 0.53 0.52 0.51 0.51 0.48 0.48 0.47 0.45 0.44 0.43 0.37 0.37 0.44 0.52 0.58 0.61 0.61 0.60 0.58 0.57 0.55 0.52 0.50 0.51 0.51 0.51 0.49 0.47 0.45 0.42 0.42 0.45 0.46 0.47 0.48 0.50 0.51 0.54 0.60 0.64 0.66 0.68 0.67 0.66 0.68 0.69 0.72 0.73 0.75 0.79 0.83 0.85 0.86 0.86 0.86 0.92 0.91 0.92 0.95 1.03 1.06 1.06 1.06 1.11 1.19 1.27 1.32 1.36 1.44 1.61
0.91 0.79 0.73 0.70 0.65 0.59 0.59 0.58 0.58 0.57 0.56 0.55 0.55 0.53 0.53 0.53 0.52 0.50 0.50 0.48 0.47 0.47 0.47 0.46 0.45 0.39 0.35 0.40 0.46 0.52 0.56 0.58 0.57 0.56 0.54 0.52 0.50 0.48 0.47 0.47 0.46 0.45 0.44 0.42 0.39 0.39 0.43 0.47 0.47 0.48 0.49 0.52 0.54 0.56 0.60 0.64 0.68 0.68 0.72 0.71 0.68 0.68 0.68 0.70 0.72 0.74 0.78 0.79 0.80 0.83 0.84 0.90 0.90 0.86 0.96 1.03 1.02 1.03 1.00 1.01 1.05 1.20 1.26 1.27 1.34
0.78 0.73 0.70 0.63 0.57 0.56 0.59 0.61 0.61 0.60 0.60 0.58 0.55 0.53 0.53 0.53 0.53 0.53 0.51 0.48 0.48 0.49 0.49 0.50 0.50 0.47 0.41 0.40 0.43 0.47 0.50 0.54 0.56 0.55 0.54 0.52 0.50 0.48 0.47 0.45 0.43 0.42 0.42 0.41 0.39 0.40 0.43 0.46 0.47 0.50 0.51 0.54 0.56 0.57 0.61 0.63 0.70 0.70 0.75 0.76 0.69 0.65 0.64 0.66 0.67 0.67 0.68 0.70 0.72 0.75 0.79 0.79 0.83 0.86 0.90 0.93 0.91 0.92 0.97 0.96 0.94 1.02 1.11 1.21 1.25
0.73 0.69 0.62 0.56 0.55 0.58 0.62 0.64 0.65 0.63 0.61 0.58 0.55 0.53 0.52 0.53 0.53 0.52 0.50 0.49 0.51 0.52 0.54 0.54 0.53 0.52 0.51 0.50 0.50 0.51 0.54 0.58 0.63 0.61 0.58 0.57 0.55 0.51 0.48 0.46 0.43 0.40 0.41 0.41 0.39 0.39 0.41 0.43 0.46 0.52 0.53 0.53 0.55 0.58 0.61 0.67 0.70 0.72 0.76 0.79 0.77 0.71 0.65 0.64 0.64 0.62 0.62 0.62 0.62 0.67 0.69 0.71 0.73 0.74 0.74 0.74 0.75 0.78 0.89 0.92 0.91 1.01 1.07 1.09 1.17
0.65 0.59 0.55 0.55 0.57 0.61 0.63 0.64 0.65 0.64 0.62 0.58 0.55 0.53 0.52 0.52 0.52 0.50 0.49 0.50 0.53 0.56 0.57 0.57 0.56 0.55 0.53 0.53 0.53 0.53 0.54 0.58 0.63 0.64 0.64 0.61 0.58 0.56 0.53 0.49 0.45 0.42 0.41 0.41 0.41 0.40 0.41 0.42 0.45 0.49 0.51 0.52 0.53 0.56 0.60 0.65 0.70 0.72 0.76 0.78 0.78 0.76 0.71 0.65 0.61 0.61 0.61 0.58 0.58 0.60 0.59 0.61 0.66 0.69 0.68 0.71 0.76 0.81 0.80 0.82 0.80 0.88 0.97 1.00 1.06
0.57 0.56 0.54 0.56 0.59 0.61 0.62 0.64 0.66 0.64 0.63 0.61 0.57 0.54 0.53 0.52 0.50 0.50 0.51 0.53 0.55 0.58 0.59 0.58 0.58 0.58 0.57 0.55 0.55 0.55 0.56 0.58 0.60 0.62 0.64 0.64 0.60 0.58 0.54 0.51 0.49 0.44 0.42 0.41 0.42 0.43 0.42 0.43 0.44 0.46 0.49 0.51 0.51 0.54 0.59 0.63 0.66 0.69 0.71 0.75 0.77 0.75 0.71 0.68 0.66 0.63 0.59 0.57 0.60 0.60 0.58 0.58 0.62 0.67 0.66 0.67 0.70 0.71 0.73 0.77 0.78 0.79 0.79 0.78 0.79
0.55 0.56 0.58 0.58 0.59 0.61 0.62 0.65 0.65 0.65 0.64 0.61 0.60 0.57 0.55 0.52 0.51 0.52 0.54 0.56 0.58 0.59 0.59 0.60 0.61 0.61 0.61 0.60 0.58 0.58 0.59 0.61 0.60 0.61 0.63 0.64 0.64 0.60 0.57 0.52 0.50 0.47 0.44 0.43 0.43 0.44 0.44 0.44 0.44 0.45 0.46 0.50 0.49 0.50 0.53 0.58 0.62 0.65 0.67 0.69 0.71 0.73 0.76 0.75 0.69 0.62 0.61 0.58 0.59 0.60 0.60 0.58 0.58 0.61 0.61 0.61 0.60 0.62 0.67 0.71 0.72 0.72 0.72 0.73 0.76
0.58 0.57 0.59 0.58 0.59 0.61 0.62 0.64 0.65 0.64 0.64 0.63 0.63 0.61 0.57 0.54 0.52 0.54 0.54 0.58 0.60 0.59 0.60 0.62 0.63 0.65 0.64 0.62 0.61 0.62 0.63 0.65 0.62 0.62 0.62 0.64 0.65 0.64 0.60 0.56 0.52 0.49 0.47 0.45 0.44 0.45 0.47 0.47 0.45 0.45 0.46 0.48 0.49 0.48 0.46 0.48 0.54 0.58 0.62 0.64 0.65 0.68 0.70 0.74 0.78 0.76 0.75 0.66 0.61 0.61 0.64 0.64 0.59 0.59 0.64 0.62 0.65 0.57 0.58 0.61 0.66 0.69 0.71 0.70 0.74
0.58 0.57 0.59 0.59 0.60 0.63 0.63 0.64 0.64 0.65 0.66 0.65 0.64 0.62 0.60 0.56 0.56 0.59 0.59 0.59 0.59 0.60 0.63 0.64 0.65 0.66 0.65 0.65 0.64 0.65 0.66 0.68 0.66 0.65 0.64 0.64 0.66 0.65 0.63 0.60 0.56 0.54 0.51 0.50 0.47 0.46 0.47 0.48 0.47 0.45 0.46 0.48 0.50 0.48 0.46 0.43 0.44 0.44 0.47 0.54 0.58 0.61 0.64 0.69 0.72 0.76 0.79 0.75 0.70 0.67 0.73 0.72 0.65 0.66 0.68 0.67 0.60 0.55 0.56 0.56 0.60 0.60 0.63 0.66 0.76
0.56 0.56 0.56 0.58 0.62 0.65 0.64 0.64 0.63 0.65 0.67 0.65 0.63 0.62 0.61 0.59 0.59 0.61 0.62 0.61 0.61 0.62 0.63 0.64 0.66 0.67 0.67 0.68 0.68 0.68 0.70 0.71 0.70 0.70 0.68 0.67 0.68 0.67 0.66 0.64 0.60 0.57 0.56 0.54 0.52 0.48 0.46 0.48 0.48 0.46 0.47 0.49 0.53 0.51 0.47 0.44 0.43 0.41 0.39 0.41 0.48 0.52 0.56 0.62 0.68 0.72 0.73 0.74 0.75 0.76 0.78 0.80 0.79 0.78 0.76 0.72 0.66 0.64 0.62 0.60 0.61 0.62 0.65 0.72 0.74
0.53 0.54 0.53 0.55 0.59 0.63 0.64 0.62 0.63 0.64 0.65 0.64 0.62 0.62 0.61 0.61 0.62 0.65 0.67 0.66 0.67 0.67 0.67 0.68 0.66 0.67 0.69 0.69 0.69 0.69 0.72 0.74 0.74 0.72 0.71 0.71 0.70 0.67 0.65 0.63 0.60 0.57 0.56 0.56 0.53 0.49 0.47 0.48 0.48 0.47 0.49 0.51 0.54 0.51 0.51 0.48 0.44 0.42 0.39 0.38 0.40 0.47 0.51 0.57 0.64 0.72 0.75 0.73 0.71 0.75 0.77 0.79 0.80 0.81 0.80 0.78 0.72 0.68 0.67 0.68 0.65 0.61 0.57 0.54 0.54
0.51 0.53 0.52 0.54 0.57 0.61 0.62 0.60 0.58 0.60 0.60 0.60 0.59 0.61 0.62 0.62 0.65 0.70 0.66 0.66 0.65 0.66 0.67 0.68 0.69 0.68 0.68 0.70 0.69 0.70 0.72 0.75 0.77 0.77 0.76 0.76 0.74 0.70 0.66 0.63 0.61 0.58 0.57 0.56 0.53 0.49 0.45 0.49 0.50 0.48 0.51 0.53 0.52 0.49 0.50 0.49 0.45 0.42 0.40 0.38 0.38 0.40 0.47 0.53 0.57 0.58 0.61 0.64 0.66 0.68 0.70 0.71 0.72 0.74 0.77 0.80 0.76 0.72 0.66 0.60 0.57 0.60 0.53 0.46 0.50
0.51 0.53 0.54 0.56 0.57 0.58 0.58 0.58 0.56 0.56 0.56 0.56 0.58 0.62 0.66 0.69 0.69 0.71 0.67 0.66 0.66 0.68 0.70 0.70 0.71 0.71 0.70 0.70 0.71 0.71 0.73 0.78 0.81 0.82 0.82 0.80 0.80 0.76 0.72 0.66 0.61 0.58 0.55 0.56 0.54 0.47 0.46 0.48 0.51 0.52 0.53 0.54 0.50 0.49 0.50 0.50 0.46 0.45 0.41 0.38 0.36 0.35 0.39 0.49 0.52 0.53 0.55 0.57 0.58 0.60 0.62 0.63 0.65 0.67 0.69 0.71 0.71 0.70 0.64 0.56 0.63 0.64 0.56 0.55 0.49
0.53 0.54 0.56 0.58 0.59 0.60 0.61 0.60 0.58 0.56 0.55 0.57 0.61 0.64 0.68 0.69 0.71 0.72 0.71 0.70 0.69 0.71 0.72 0.71 0.71 0.73 0.73 0.73 0.75 0.77 0.78 0.81 0.84 0.84 0.84 0.82 0.82 0.80 0.76 0.70 0.62 0.57 0.55 0.54 0.51 0.46 0.46 0.48 0.51 0.54 0.55 0.54 0.50 0.49 0.50 0.50 0.47 0.44 0.42 0.40 0.37 0.35 0.38 0.42 0.46 0.46 0.50 0.51 0.52 0.54 0.54 0.56 0.58 0.60 0.62 0.64 0.64 0.65 0.66 0.66 0.69 0.65 0.59 0.59 0.59
0.54 0.56 0.57 0.58 0.60 0.61 0.61 0.59 0.57 0.56 0.57 0.61 0.65 0.68 0.70 0.71 0.70 0.70 0.70 0.70 0.69 0.70 0.71 0.71 0.70 0.71 0.74 0.75 0.75 0.79 0.82 0.85 0.85 0.83 0.84 0.83 0.82 0.81 0.78 0.72 0.66 0.61 0.58 0.54 0.48 0.47 0.47 0.48 0.51 0.53 0.55 0.52 0.50 0.50 0.50 0.50 0.46 0.45 0.43 0.40 0.38 0.36 0.42 0.43 0.46 0.43 0.42 0.44 0.46 0.48 0.48 0.51 0.53 0.55 0.56 0.56 0.58 0.62 0.63 0.67 0.70 0.70 0.66 0.63 0.64
0.55 0.55 0.57 0.57 0.58 0.59 0.60 0.59 0.57 0.60 0.62 0.64 0.67 0.69 0.71 0.70 0.71 0.70 0.69 0.70 0.70 0.69 0.69 0.71 0.72 0.72 0.75 0.76 0.78 0.81 0.84 0.82 0.83 0.82 0.82 0.83 0.82 0.78 0.75 0.72 0.72 0.69 0.62 0.56 0.52 0.48 0.47 0.49 0.51 0.53 0.53 0.51 0.50 0.49 0.48 0.48 0.48 0.46 0.44 0.42 0.42 0.44 0.44 0.41 0.42 0.42 0.39 0.38 0.38 0.39 0.41 0.44 0.46 0.49 0.51 0.51 0.52 0.57 0.60 0.64 0.71 0.74 0.73 0.69 0.66
0.58 0.58 0.57 0.57 0.56 0.57 0.58 0.60 0.62 0.63 0.65 0.67 0.66 0.66 0.69 0.71 0.71 0.71 0.71 0.71 0.70 0.70 0.70 0.71 0.71 0.72 0.75 0.78 0.80 0.82 0.83 0.83 0.81 0.82 0.83 0.83 0.81 0.78 0.74 0.71 0.73 0.69 0.62 0.58 0.56 0.52 0.49 0.50 0.49 0.52 0.52 0.52 0.51 0.49 0.48 0.47 0.47 0.46 0.45 0.44 0.42 0.42 0.44 0.44 0.43 0.40 0.37 0.36 0.37 0.37 0.39 0.40 0.43 0.44 0.46 0.47 0.49 0.52 0.56 0.60 0.68 0.75 0.81 0.80 0.76
0.59 0.59 0.59 0.60 0.60 0.58 0.58 0.60 0.62 0.65 0.66 0.68 0.68 0.67 0.69 0.69 0.69 0.71 0.71 0.70 0.70 0.69 0.69 0.70 0.71 0.71 0.73 0.76 0.79 0.81 0.81 0.82 0.86 0.87 0.85 0.83 0.79 0.76 0.73 0.70 0.71 0.70 0.61 0.58 0.57 0.55 0.52 0.50 0.51 0.54 0.51 0.52 0.51 0.50 0.49 0.49 0.47 0.46 0.44 0.40 0.40 0.42 0.44 0.44 0.42 0.38 0.35 0.34 0.34 0.35 0.38 0.40 0.41 0.42 0.43 0.43 0.46 0.49 0.54 0.58 0.64 0.69 0.73 0.77 0.79
0.61 0.59 0.59 0.60 0.61 0.62 0.62 0.62 0.63 0.66 0.67 0.68 0.68 0.67 0.68 0.69 0.69 0.70 0.70 0.70 0.69 0.68 0.69 0.70 0.70 0.70 0.70 0.73 0.77 0.79 0.82 0.83 0.85 0.87 0.87 0.83 0.79 0.76 0.74 0.72 0.71 0.69 0.66 0.61 0.61 0.60 0.55 0.52 0.53 0.52 0.51 0.49 0.51 0.50 0.50 0.50 0.48 0.46 0.43 0.40 0.41 0.42 0.41 0.39 0.36 0.34 0.34 0.33 0.32 0.34 0.36 0.40 0.41 0.41 0.41 0.44 0.46 0.47 0.51 0.55 0.58 0.64 0.66 0.68 0.73
0.60 0.59 0.59 0.60 0.61 0.62 0.64 0.64 0.64 0.65 0.67 0.67 0.66 0.66 0.67 0.68 0.67 0.69 0.70 0.69 0.69 0.68 0.69 0.70 0.69 0.69 0.71 0.72 0.74 0.77 0.81 0.83 0.84 0.85 0.87 0.85 0.79 0.76 0.75 0.74 0.73 0.69 0.65 0.63 0.64 0.62 0.59 0.55 0.52 0.51 0.50 0.48 0.49 0.53 0.53 0.53 0.53 0.48 0.43 0.41 0.42 0.40 0.38 0.35 0.34 0.33 0.31 0.31 0.33 0.34 0.35 0.38 0.40 0.42 0.44 0.45 0.46 0.47 0.49 0.53 0.55 0.60 0.62 0.65 0.68
0.58 0.59 0.61 0.62 0.63 0.64 0.63 0.64 0.65 0.67 0.68 0.70 0.70 0.71 0.70 0.70 0.70 0.72 0.73 0.72 0.71 0.70 0.69 0.69 0.70 0.70 0.71 0.73 0.75 0.77 0.80 0.81 0.82 0.82 0.86 0.87 0.81 0.75 0.74 0.76 0.78 0.75 0.69 0.66 0.63 0.61 0.58 0.53 0.51 0.51 0.49 0.48 0.48 0.52 0.55 0.54 0.50 0.48 0.44 0.43 0.42 0.40 0.38 0.34 0.31 0.31 0.30 0.32 0.34 0.34 0.36 0.39 0.40 0.43 0.44 0.44 0.41 0.40 0.45 0.48 0.51 0.53 0.57 0.57 0.56
0.57 0.59 0.60 0.62 0.64 0.64 0.64 0.64 0.65 0.66 0.67 0.69 0.70 0.70 0.72 0.72 0.71 0.71 0.72 0.71 0.71 0.71 0.71 0.71 0.71 0.71 0.70 0.72 0.74 0.77 0.78 0.79 0.80 0.80 0.81 0.83 0.81 0.77 0.75 0.74 0.78 0.72 0.66 0.64 0.61 0.60 0.58 0.54 0.51 0.51 0.49 0.47 0.46 0.50 0.51 0.51 0.48 0.46 0.44 0.45 0.44 0.44 0.43 0.38 0.33 0.30 0.31 0.32 0.34 0.36 0.38 0.40 0.43 0.42 0.38 0.38 0.37 0.39 0.41 0.45 0.47 0.49 0.52 0.54 0.52
0.55 0.56 0.58 0.60 0.61 0.63 0.63 0.65 0.66 0.66 0.67 0.67 0.65 0.66 0.68 0.70 0.69 0.67 0.68 0.69 0.68 0.69 0.70 0.71 0.71 0.71 0.70 0.71 0.72 0.73 0.74 0.76 0.77 0.76 0.77 0.78 0.79 0.78 0.76 0.74 0.73 0.71 0.65 0.63 0.61 0.61 0.58 0.54 0.51 0.49 0.49 0.45 0.43 0.45 0.46 0.46 0.46 0.45 0.44 0.44 0.43 0.44 0.44 0.42 0.39 0.35 0.34 0.35 0.35 0.37 0.37 0.38 0.36 0.37 0.38 0.36 0.36 0.37 0.39 0.39 0.42 0.45 0.48 0.47 0.46
0.60 0.58 0.58 0.58 0.58 0.63 0.65 0.68 0.69 0.68 0.68 0.69 0.70 0.70 0.68 0.68 0.68 0.69 0.74 0.76 0.75 0.72 0.71 0.72 0.74 0.75 0.73 0.71 0.69 0.68 0.70 0.71 0.74 0.78 0.78 0.78 0.77 0.75 0.73 0.72 0.73 0.71 0.68 0.65 0.62 0.60 0.59 0.52 0.48 0.47 0.45 0.43 0.41 0.41 0.42 0.43 0.42 0.43 0.44 0.43 0.42 0.41 0.40 0.38 0.35 0.33 0.33 0.32 0.31 0.31 0.31 0.33 0.34 0.36 0.36 0.35 0.35 0.35 0.38 0.37 0.39 0.40 0.43 0.44 0.40
0.60 0.60 0.61 0.61 0.61 0.64 0.68 0.71 0.73 0.72 0.71 0.70 0.71 0.73 0.79 0.80 0.77 0.74 0.73 0.78 0.80 0.81 0.80 0.75 0.76 0.76 0.73 0.74 0.75 0.70 0.68 0.73 0.78 0.77 0.77 0.77 0.76 0.75 0.74 0.72 0.72 0.71 0.70 0.66 0.65 0.58 0.56 0.52 0.48 0.46 0.44 0.43 0.40 0.39 0.40 0.40 0.40 0.39 0.41 0.44 0.43 0.41 0.39 0.38 0.37 0.36 0.35 0.32 0.31 0.30 0.30 0.31 0.31 0.33 0.34 0.34 0.35 0.36 0.38 0.37 0.36 0.37 0.35 0.35 0.36
0.59 0.60 0.62 0.63 0.65 0.66 0.67 0.70 0.72 0.71 0.71 0.70 0.70 0.70 0.70 0.76 0.80 0.79 0.77 0.76 0.77 0.77 0.78 0.78 0.78 0.77 0.74 0.69 0.73 0.76 0.76 0.77 0.77 0.76 0.74 0.74 0.73 0.73 0.72 0.71 0.71 0.70 0.69 0.66 0.62 0.58 0.56 0.53 0.50 0.48 0.46 0.44 0.42 0.39 0.41 0.40 0.40 0.39 0.40 0.42 0.44 0.43 0.41 0.38 0.38 0.38 0.35 0.32 0.31 0.31 0.31 0.31 0.31 0.32 0.33 0.34 0.34 0.34 0.35 0.37 0.38 0.37 0.35 0.35 0.35
0.57 0.58 0.61 0.65 0.69 0.72 0.73 0.73 0.73 0.71 0.71 0.71 0.71 0.69 0.69 0.68 0.70 0.75 0.76 0.75 0.75 0.75 0.75 0.76 0.75 0.74 0.73 0.73 0.71 0.71 0.74 0.76 0.76 0.74 0.72 0.71 0.71 0.71 0.71 0.71 0.69 0.69 0.68 0.67 0.61 0.58 0.58 0.57 0.54 0.50 0.47 0.44 0.43 0.42 0.42 0.41 0.41 0.40 0.40 0.40 0.41 0.43 0.41 0.39 0.39 0.38 0.36 0.33 0.32 0.31 0.31 0.31 0.31 0.31 0.31 0.32 0.33 0.33 0.34 0.33 0.34 0.34 0.34 0.36 0.36
0.59 0.59 0.62 0.68 0.73 0.77 0.79 0.76 0.74 0.73 0.71 0.71 0.70 0.71 0.69 0.67 0.64 0.64 0.69 0.74 0.74 0.72 0.72 0.73 0.74 0.74 0.73 0.73 0.73 0.72 0.71 0.73 0.73 0.73 0.72 0.72 0.72 0.72 0.72 0.71 0.70 0.68 0.67 0.64 0.61 0.58 0.59 0.59 0.56 0.55 0.52 0.46 0.45 0.43 0.41 0.42 0.42 0.42 0.42 0.41 0.41 0.42 0.43 0.43 0.43 0.40 0.38 0.36 0.34 0.33 0.32 0.32 0.32 0.31 0.31 0.31 0.30 0.30 0.32 0.32 0.34 0.33 0.33 0.31 0.32
0.62 0.63 0.65 0.69 0.71 0.74 0.77 0.76 0.75 0.75 0.75 0.73 0.72 0.71 0.71 0.71 0.69 0.67 0.65 0.64 0.65 0.69 0.72 0.73 0.74 0.74 0.73 0.73 0.72 0.72 0.73 0.74 0.74 0.75 0.75 0.76 0.76 0.75 0.73 0.72 0.71 0.69 0.66 0.63 0.61 0.58 0.59 0.59 0.58 0.56 0.55 0.53 0.50 0.46 0.43 0.43 0.43 0.44 0.44 0.44 0.44 0.44 0.44 0.45 0.42 0.40 0.39 0.36 0.33 0.33 0.34 0.33 0.33 0.31 0.30 0.30 0.30 0.31 0.31 0.32 0.33 0.31 0.30 0.30 0.29
0.65 0.66 0.68 0.70 0.72 0.75 0.78 0.79 0.78 0.77 0.75 0.73 0.73 0.73 0.72 0.72 0.71 0.68 0.66 0.65 0.64 0.64 0.66 0.70 0.75 0.76 0.74 0.75 0.75 0.72 0.72 0.74 0.76 0.77 0.78 0.78 0.79 0.79 0.77 0.72 0.67 0.66 0.65 0.64 0.62 0.60 0.59 0.59 0.58 0.58 0.57 0.54 0.53 0.51 0.46 0.44 0.44 0.45 0.45 0.45 0.45 0.45 0.45 0.44 0.42 0.42 0.40 0.37 0.35 0.34 0.34 0.33 0.33 0.33 0.31 0.30 0.30 0.30 0.31 0.32 0.33 0.32 0.31 0.31 0.29
0.67 0.67 0.67 0.68 0.70 0.75 0.77 0.79 0.79 0.76 0.74 0.72 0.74 0.74 0.74 0.73 0.70 0.69 0.69 0.70 0.69 0.68 0.68 0.70 0.72 0.74 0.76 0.77 0.77 0.75 0.73 0.73 0.74 0.76 0.78 0.79 0.80 0.79 0.73 0.70 0.68 0.66 0.64 0.64 0.61 0.60 0.60 0.60 0.60 0.60 0.59 0.57 0.56 0.54 0.52 0.49 0.47 0.47 0.47 0.47 0.46 0.46 0.45 0.44 0.43 0.42 0.41 0.38 0.35 0.34 0.34 0.33 0.34 0.33 0.32 0.32 0.31 0.31 0.32 0.31 0.32 0.32 0.32 0.32 0.31
0.70 0.69 0.68 0.69 0.70 0.75 0.78 0.81 0.80 0.78 0.76 0.74 0.75 0.74 0.74 0.73 0.72 0.71 0.69 0.68 0.68 0.68 0.68 0.69 0.69 0.69 0.73 0.75 0.76 0.75 0.74 0.73 0.73 0.75 0.76 0.77 0.78 0.78 0.75 0.73 0.70 0.69 0.67 0.65 0.64 0.61 0.59 0.60 0.62 0.61 0.60 0.58 0.57 0.56 0.55 0.52 0.51 0.49 0.49 0.50 0.50 0.48 0.47 0.46 0.44 0.43 0.40 0.37 0.34 0.33 0.33 0.33 0.33 0.34 0.32 0.31 0.32 0.33 0.33 0.34 0.31 0.30 0.31 0.32 0.32
0.73 0.71 0.71 0.73 0.75 0.76 0.78 0.79 0.79 0.78 0.76 0.73 0.74 0.75 0.73 0.72 0.71 0.71 0.69 0.68 0.68 0.67 0.66 0.66 0.67 0.65 0.62 0.64 0.72 0.72 0.71 0.72 0.72 0.71 0.72 0.73 0.73 0.73 0.74 0.74 0.74 0.71 0.69 0.69 0.67 0.64 0.60 0.61 0.62 0.62 0.62 0.60 0.58 0.58 0.56 0.55 0.54 0.53 0.52 0.51 0.51 0.50 0.50 0.49 0.48 0.45 0.42 0.39 0.36 0.34 0.34 0.34 0.34 0.34 0.34 0.33 0.32 0.33 0.35 0.35 0.32 0.30 0.31 0.32 0.32
0.73 0.73 0.74 0.76 0.76 0.75 0.76 0.77 0.77 0.76 0.73 0.72 0.72 0.73 0.73 0.72 0.70 0.69 0.69 0.69 0.68 0.67 0.66 0.65 0.64 0.63 0.63 0.66 0.67 0.71 0.68 0.65 0.64 0.63 0.65 0.67 0.69 0.70 0.72 0.74 0.74 0.74 0.72 0.71 0.70 0.68 0.65 0.62 0.62 0.63 0.63 0.61 0.61 0.60 0.59 0.57 0.57 0.56 0.56 0.54 0.52 0.50 0.50 0.49 0.47 0.46 0.43 0.40 0.37 0.36 0.34 0.34 0.35 0.35 0.35 0.34 0.33 0.35 0.36 0.35 0.34 0.33 0.32 0.32 0.33
0.73 0.75 0.77 0.78 0.78 0.77 0.77 0.77 0.77 0.75 0.73 0.70 0.70 0.72 0.72 0.72 0.72 0.71 0.71 0.70 0.67 0.66 0.65 0.64 0.62 0.62 0.65 0.66 0.65 0.66 0.60 0.59 0.61 0.63 0.64 0.64 0.65 0.68 0.70 0.71 0.73 0.74 0.73 0.72 0.72 0.71 0.69 0.66 0.65 0.64 0.65 0.66 0.66 0.63 0.62 0.60 0.59 0.58 0.58 0.56 0.53 0.51 0.50 0.49 0.47 0.46 0.43 0.41 0.40 0.38 0.35 0.34 0.36 0.36 0.36 0.36 0.35 0.36 0.37 0.36 0.36 0.34 0.35 0.35 0.36
0.74 0.76 0.78 0.78 0.77 0.76 0.75 0.75 0.74 0.73 0.73 0.71 0.71 0.71 0.71 0.73 0.75 0.75 0.73 0.71 0.69 0.67 0.66 0.65 0.64 0.64 0.65 0.65 0.65 0.65 0.61 0.59 0.60 0.62 0.63 0.63 0.65 0.66 0.68 0.70 0.73 0.74 0.75 0.74 0.74 0.73 0.71 0.69 0.67 0.66 0.67 0.67 0.67 0.65 0.63 0.62 0.61 0.60 0.58 0.56 0.55 0.53 0.52 0.49 0.48 0.45 0.43 0.43 0.42 0.40 0.37 0.36 0.36 0.36 0.34 0.35 0.37 0.36 0.37 0.38 0.37 0.35 0.36 0.37 0.38
0.74 0.74 0.75 0.76 0.76 0.75 0.72 0.71 0.72 0.73 0.74 0.72 0.71 0.72 0.73 0.74 0.74 0.72 0.70 0.70 0.69 0.69 0.67 0.66 0.65 0.65 0.64 0.64 0.64 0.64 0.62 0.62 0.62 0.62 0.63 0.66 0.66 0.66 0.68 0.70 0.73 0.75 0.75 0.75 0.76 0.75 0.73 0.71 0.69 0.67 0.66 0.66 0.67 0.66 0.65 0.62 0.62 0.60 0.58 0.56 0.55 0.54 0.52 0.49 0.48 0.44 0.43 0.44 0.44 0.42 0.40 0.38 0.37 0.37 0.37 0.37 0.36 0.35 0.36 0.37 0.37 0.37 0.38 0.38 0.38
0.74 0.73 0.72 0.72 0.71 0.71 0.70 0.70 0.72 0.71 0.71 0.70 0.70 0.72 0.74 0.74 0.73 0.72 0.70 0.70 0.70 0.69 0.67 0.65 0.64 0.63 0.61 0.61 0.59 0.59 0.60 0.61 0.62 0.63 0.63 0.64 0.66 0.67 0.68 0.69 0.71 0.74 0.76 0.78 0.79 0.78 0.76 0.73 0.71 0.69 0.68 0.67 0.67 0.66 0.64 0.63 0.63 0.62 0.59 0.57 0.56 0.55 0.53 0.51 0.49 0.46 0.45 0.45 0.44 0.45 0.43 0.40 0.40 0.38 0.37 0.37 0.36 0.35 0.36 0.37 0.37 0.37 0.38 0.38 0.39
0.77 0.75 0.73 0.72 0.72 0.73 0.73 0.72 0.71 0.72 0.72 0.71 0.71 0.71 0.72 0.73 0.74 0.74 0.71 0.68 0.68 0.68 0.67 0.66 0.65 0.64 0.62 0.62 0.57 0.53 0.53 0.57 0.60 0.62 0.63 0.65 0.66 0.66 0.68 0.70 0.72 0.74 0.75 0.77 0.78 0.78 0.76 0.74 0.72 0.70 0.70 0.69 0.69 0.68 0.68 0.66 0.65 0.63 0.61 0.58 0.57 0.56 0.54 0.52 0.49 0.47 0.47 0.46 0.45 0.45 0.44 0.43 0.42 0.40 0.39 0.39 0.37 0.35 0.35 0.37 0.37 0.37 0.38 0.38 0.39
0.78 0.75 0.72 0.71 0.72 0.72 0.73 0.73 0.72 0.73 0.74 0.72 0.70 0.70 0.71 0.71 0.70 0.70 0.68 0.66 0.67 0.68 0.68 0.68 0.69 0.68 0.65 0.62 0.60 0.56 0.53 0.54 0.57 0.60 0.62 0.63 0.65 0.66 0.68 0.69 0.71 0.72 0.74 0.76 0.77 0.77 0.74 0.72 0.71 0.69 0.68 0.68 0.69 0.69 0.69 0.68 0.66 0.65 0.63 0.59 0.57 0.56 0.55 0.53 0.51 0.50 0.50 0.47 0.46 0.45 0.44 0.43 0.42 0.41 0.41 0.41 0.40 0.38 0.37 0.37 0.37 0.37 0.38 0.37 0.38
0.71 0.70 0.70 0.70 0.69 0.70 0.70 0.70 0.72 0.72 0.71 0.69 0.68 0.67 0.69 0.69 0.69 0.67 0.66 0.66 0.67 0.68 0.69 0.70 0.71 0.70 0.68 0.65 0.64 0.60 0.57 0.53 0.52 0.55 0.58 0.61 0.64 0.66 0.67 0.67 0.68 0.70 0.73 0.76 0.77 0.75 0.73 0.70 0.69 0.67 0.66 0.66 0.67 0.69 0.70 0.69 0.67 0.65 0.63 0.61 0.60 0.59 0.59 0.57 0.55 0.52 0.50 0.49 0.47 0.46 0.46 0.45 0.44 0.43 0.42 0.42 0.41 0.41 0.39 0.39 0.39 0.39 0.38 0.38 0.39
0.73 0.72 0.72 0.71 0.69 0.69 0.71 0.71 0.70 0.71 0.71 0.70 0.68 0.68 0.68 0.68 0.68 0.67 0.66 0.66 0.68 0.70 0.71 0.72 0.72 0.70 0.69 0.69 0.67 0.63 0.61 0.57 0.52 0.51 0.55 0.59 0.62 0.64 0.64 0.64 0.64 0.66 0.69 0.73 0.75 0.74 0.72 0.70 0.68 0.67 0.65 0.65 0.66 0.68 0.69 0.69 0.67 0.65 0.63 0.62 0.62 0.60 0.59 0.58 0.55 0.53 0.52 0.51 0.49 0.47 0.46 0.45 0.44 0.43 0.42 0.44 0.43 0.41 0.41 0.40 0.40 0.40 0.40 0.39 0.39
0.73 0.73 0.74 0.76 0.76 0.75 0.74 0.71 0.69 0.70 0.70 0.68 0.67 0.67 0.67 0.68 0.68 0.67 0.67 0.67 0.68 0.70 0.72 0.74 0.74 0.73 0.73 0.72 0.71 0.69 0.69 0.67 0.60 0.53 0.52 0.54 0.59 0.62 0.64 0.64 0.64 0.65 0.67 0.69 0.71 0.72 0.70 0.69 0.68 0.67 0.66 0.65 0.64 0.67 0.69 0.68 0.66 0.64 0.62 0.63 0.62 0.61 0.59 0.58 0.56 0.54 0.52 0.51 0.50 0.47 0.45 0.44 0.43 0.42 0.41 0.41 0.42 0.42 0.41 0.40 0.41 0.41 0.42 0.42 0.42
0.74 0.74 0.75 0.76 0.75 0.74 0.71 0.67 0.65 0.65 0.66 0.66 0.65 0.66 0.66 0.66 0.67 0.68 0.68 0.68 0.69 0.71 0.73 0.74 0.75 0.76 0.76 0.75 0.75 0.74 0.73 0.71 0.68 0.62 0.56 0.54 0.57 0.61 0.63 0.64 0.65 0.65 0.66 0.67 0.68 0.69 0.68 0.67 0.67 0.66 0.66 0.67 0.67 0.68 0.68 0.66 0.64 0.62 0.62 0.62 0.62 0.61 0.60 0.59 0.58 0.56 0.56 0.55 0.54 0.51 0.47 0.43 0.41 0.41 0.40 0.39 0.40 0.42 0.42 0.42 0.41 0.41 0.42 0.43 0.43
0.76 0.78 0.79 0.79 0.76 0.71 0.69 0.68 0.66 0.66 0.68 0.67 0.66 0.64 0.65 0.66 0.67 0.68 0.68 0.67 0.69 0.71 0.74 0.76 0.77 0.78 0.78 0.77 0.77 0.76 0.75 0.73 0.71 0.69 0.66 0.61 0.58 0.57 0.60 0.62 0.63 0.65 0.65 0.66 0.67 0.68 0.67 0.66 0.66 0.66 0.66 0.66 0.66 0.66 0.66 0.66 0.64 0.62 0.61 0.62 0.62 0.62 0.61 0.60 0.60 0.60 0.59 0.60 0.59 0.57 0.52 0.47 0.42 0.39 0.39 0.39 0.39 0.40 0.41 0.42 0.42 0.42 0.43 0.43 0.43
0.79 0.80 0.80 0.79 0.75 0.70 0.68 0.68 0.69 0.70 0.70 0.68 0.67 0.66 0.65 0.65 0.67 0.68 0.68 0.67 0.67 0.70 0.74 0.76 0.78 0.79 0.80 0.80 0.79 0.78 0.78 0.77 0.75 0.74 0.73 0.70 0.65 0.58 0.56 0.58 0.61 0.63 0.65 0.65 0.66 0.67 0.67 0.65 0.64 0.65 0.66 0.66 0.65 0.65 0.65 0.65 0.65 0.63 0.62 0.63 0.63 0.63 0.62 0.62 0.62 0.61 0.62 0.62 0.62 0.61 0.58 0.53 0.47 0.41 0.38 0.37 0.38 0.38 0.40 0.41 0.42 0.43 0.44 0.44 0.44
Wind_Speed
13 14 15 16 17 18 19 20 21 22 22 21 21 21 20 20 20 20 20 20 21 21 22 22 22 22 21 21 20 19 17 17 16 16 16 16 16 16 16 16 16 16 16 16 17 17 17 16 16 16 17 17 17 17 17 18 18 17 17 17 16 16 16 16 17 17 17 16 16 16 15 15 15 14 13 13 12 11 9 8 8 9 12 15 18
14 15 16 17 18 19 20 21 21 21 21 21 21 20 20 20 20 20 20 21 21 21 21 22 22 21 20 20 19 18 17 17 16 16 16 16 16 17 17 17 17 17 17 17 17 17 17 17 17 17 16 16 16 17 17 18 18 18 18 18 17 17 17 17 17 17 17 17 17 16 16 15 15 15 14 14 13 12 12 10 9 8 9 10 12
15 16 17 18 19 20 21 21 21 21 21 21 21 21 20 20 20 20 20 20 20 21 21 21 21 20 19 19 18 17 17 16 16 16 16 16 17 17 17 17 17 17 17 17 17 17 17 17 17 16 16 16 16 16 16 17 18 18 18 19 18 18 18 18 17 17 17 17 17 16 16 16 16 16 15 15 14 14 13 12 11 9 9 10 9
16 17 18 19 20 20 21 21 21 21 21 21 21 21 20 20 20 19 19 19 19 19 19 19 19 18 17 17 16 16 15 15 15 16 16 16 16 17 17 17 16 17 17 17 18 18 17 17 17 16 16 15 15 15 15 16 17 17 18 18 18 19 18 18 18 17 17 17 17 16 16 16 16 16 17 17 16 15 14 14 13 12 10 11 9
17 18 19 19 20 20 21 20 20 20 20 20 20 19 19 19 18 17 17 16 16 16 17 17 17 17 16 15 15 14 14 14 14 14 15 15 15 15 15 15 15 16 16 17 18 18 18 17 16 16 15 15 15 15 15 15 15 16 17 17 17 18 18 18 18 18 17 17 17 17 16 16 17 17 17 18 17 16 16 15 15 14 13 12 10
18 18 19 19 19 20 20 20 20 20 19 19 19 18 17 17 16 15 15 15 15 15 15 16 16 16 15 14 14 14 13 13 13 13 14 14 14 14 14 14 14 15 15 16 17 17 17 16 16 16 15 15 15 15 15 15 15 15 15 16 16 17 17 18 18 18 18 17 17 17 17 17 17 17 17 18 18 18 17 17 16 16 15 14 12
18 18 18 19 19 19 19 19 19 19 18 18 17 16 16 15 15 15 14 14 14 14 15 15 16 16 15 14 13 13 13 13 13 13 14 14 14 14 13 13 13 14 14 15 15 15 15 15 15 15 15 15 15 15 15 14 14 14 14 15 15 15 16 17 18 18 18 18 18 18 18 18 18 17 17 18 18 18 18 18 18 17 16 16 14
17 18 18 18 18 18 18 18 18 17 16 16 16 15 15 15 14 14 14 14 14 14 14 15 15 15 15 14 13 13 13 13 13 13 13 14 14 14 13 13 13 13 13 13 13 13 13 14 14 15 15 15 15 15 15 15 14 14 14 14 15 15 15 16 17 18 18 18 18 18 18 18 18 18 18 18 18 18 19 19 19 19 18 17 16
17 18 18 18 18 17 17 17 16 15 15 15 15 15 14 14 14 14 13 13 13 13 14 14 14 15 15 14 14 14 13 13 13 13 13 13 14 14 13 13 13 12 12 11 11 11 12 12 13 14 14 14 14 14 14 14 14 14 13 14 14 14 14 15 16 17 17 18 18 19 19 18 19 19 18 18 18 19 19 19 20 20 20 19 18
17 17 17 16 16 16 15 15 15 15 15 15 14 14 14 14 14 13 13 13 13 13 13 14 14 14 15 15 15 14 14 14 14 14 13 13 13 13 13 13 13 12 12 11 11 11 11 11 12 13 13 13 14 14 14 14 14 14 14 14 14 14 14 15 15 15 16 17 18 18 18 18 18 18 18 18 18 19 19 19 19 20 20 20 20
16 16 15 15 14 14 14 14 14 14 14 14 14 13 13 13 13 13 13 13 13 13 14 14 14 14 15 15 15 15 14 14 15 14 14 13 13 13 13 13 13 13 13 12 11 11 11 11 11 11 12 13 13 13 13 13 13 14 14 14 14 14 15 15 15 15 16 16 16 17 18 18 18 18 18 18 18 18 18 19 18 19 19 20 20
15 14 14 13 13 13 13 14 14 14 14 13 13 13 12 12 12 13 13 13 13 13 14 14 14 14 14 14 14 15 15 15 15 15 15 14 14 14 14 13 13 13 13 13 12 12 12 11 11 11 11 12 12 12 13 13 13 13 13 13 14 14 14 15 15 15 16 15 15 16 16 17 17 17 18 18 18 18 18 18 18 19 19 19 20
13 13 13 13 13 13 13 13 13 13 13 12 12 12 12 12 12 12 12 13 13 14 14 15 15 15 14 14 14 14 15 15 16 15 15 15 14 14 14 14 14 14 14 13 12 12 12 12 11 11 11 11 11 11 12 12 13 13 13 13 13 13 14 14 15 15 15 15 15 15 15 16 16 16 17 17 18 18 18 18 19 19 19 19 19
12 12 12 12 12 12 12 12 12 12 12 12 11 11 11 11 11 12 12 13 13 14 15 15 15 15 15 15 15 14 14 15 15 15 15 15 15 15 14 14 14 14 14 14 13 13 12 12 11 11 11 11 11 11 11 11 12 12 12 13 13 13 13 13 13 14 14 14 14 14 15 15 15 16 16 17 17 18 18 18 19 19 19 19 20
12 12 12 12 11 11 10 11 11 11 11 11 11 11 11 11 11 12 12 13 13 14 15 15 16 16 15 15 15 14 14 15 15 15 16 16 16 15 15 15 14 14 14 14 13 13 13 12 11 11 11 11 11 11 10 10 10 11 11 11 12 12 12 13 13 13 13 13 14 14 15 15 15 15 16 16 16 17 18 18 18 18 19 19 19
11 11 11 11 11 10 10 10 10 10 10 11 11 11 11 11 11 12 12 13 13 14 15 15 16 16 16 16 15 15 14 15 15 15 16 16 16 16 16 16 15 15 14 14 14 13 13 12 11 11 11 11 10 11 10 10 10 10 10 10 11 12 12 12 12 13 13 13 13 14 14 14 15 15 15 16 16 17 17 17 17 17 17 18 18
10 10 10 10 10 10 10 10 10 10 10 11 11 11 11 11 11 11 12 12 13 14 15 15 16 16 16 16 16 15 15 15 15 15 16 16 16 16 16 16 16 15 14 14 14 13 12 12 11 11 11 10 10 10 10 10 10 10 10 10 10 11 12 12 12 13 13 13 13 14 14 14 14 15 15 15 16 16 16 16 17 17 17 17 17
9 10 10 10 10 9 10 10 10 10 10 11 11 11 11 11 11 12 12 13 13 14 15 16 16 16 16 16 16 15 15 15 15 15 16 16 16 16 16 17 17 16 15 14 13 13 12 12 12 11 11 10 10 11 10 10 10 10 10 10 10 10 11 12 13 13 13 13 13 14 14 14 15 15 15 15 15 16 16 16 16 17 17 17 17
9 9 9 9 9 9 9 10 10 10 10 11 11 11 11 11 12 12 12 13 14 14 15 15 16 16 16 16 16 16 15 15 15 16 16 16 16 16 16 17 16 16 15 14 13 12 11 11 12 11 11 10 11 11 10 10 10 10 10 11 10 10 10 11 12 13 14 14 14 14 14 14 15 15 15 15 15 15 16 16 16 16 16 16 16
9 9 9 9 9 9 9 10 10 10 10 11 11 11 11 12 12 12 12 13 14 14 15 15 16 16 16 17 17 16 16 16 16 16 16 16 16 16 16 16 16 16 15 15 13 12 11 11 11 11 10 10 11 10 10 10 10 10 11 11 11 10 10 11 11 11 13 13 14 15 15 15 15 15 15 15 15 15 15 16 16 16 16 16 16
9 8 9 9 9 9 9 10 10 10 11 11 11 11 11 12 12 12 13 13 14 15 15 15 16 16 16 17 17 17 16 17 17 17 17 16 16 16 16 16 15 15 15 15 14 12 11 11 11 10 10 10 11 10 9 9 10 10 11 11 11 11 10 10 10 11 11 12 13 13 14 14 14 14 14 14 14 14 15 15 16 16 16 16 16
8 9 9 9 9 9 9 10 10 11 11 11 11 11 12 12 13 13 13 14 14 15 15 15 15 16 16 16 17 17 17 17 18 17 17 16 16 16 16 16 15 15 15 14 14 12 11 11 11 10 10 10 10 9 9 9 9 9 10 10 10 10 10 10 10 10 11 11 12 12 13 13 14 14 14 14 14 14 14 15 15 16 16 16 16
8 9 9 9 9 9 10 10 10 11 11 11 12 12 12 13 13 14 14 14 15 15 15 15 15 16 16 16 17 17 18 18 18 18 17 16 16 16 16 16 15 15 15 15 14 12 11 10 10 10 10 10 9 9 8 8 9 9 10 9 9 9 9 10 10 10 10 11 11 11 12 13 13 14 14 14 14 14 15 15 16 16 16 16 16
8 9 9 9 9 10 10 10 11 11 11 12 12 13 13 14 14 14 14 15 15 15 15 15 15 16 16 16 17 17 18 18 18 18 17 16 16 16 16 16 16 15 15 15 14 12 11 10 10 10 10 11 10 9 8 8 8 8 9 8 8 8 8 9 9 10 10 10 10 11 11 12 13 13 14 14 15 15 15 15 16 16 16 16 16
7 8 9 9 9 10 10 11 11 11 12 12 13 13 14 14 14 15 15 15 15 15 15 15 15 16 16 16 17 17 18 18 18 18 17 17 16 16 16 17 16 15 15 15 15 13 11 10 10 10 10 11 10 9 8 7 7 7 8 7 7 7 8 8 9 9 9 9 10 10 11 11 12 13 14 14 15 15 15 16 16 16 16 17 17
7 8 9 9 9 10 11 11 11 12 12 13 13 13 14 14 15 15 15 15 15 15 15 15 15 16 16 16 17 17 17 18 18 18 17 17 17 16 16 17 16 15 15 15 15 14 12 11 10 10 10 10 10 8 7 7 7 7 7 7 7 7 7 8 8 9 9 9 9 10 10 11 12 12 13 14 14 14 15 16 16 16 17 17 17
7 8 9 9 10 10 11 11 12 12 13 13 14 14 14 14 15 15 15 15 15 15 15 15 16 16 16 16 17 17 17 18 18 17 17 17 17 17 16 17 16 15 15 14 15 14 13 12 11 10 10 10 9 8 8 8 7 7 7 7 7 7 7 7 8 8 9 9 9 10 10 11 11 12 12 13 13 13 14 15 16 16 17 17 17
7 8 9 10 10 10 10 11 12 13 13 14 14 14 15 15 15 15 16 15 15 15 15 15 16 16 16 17 17 17 18 18 18 17 17 17 17 17 16 17 17 16 15 14 14 14 14 12 11 10 10 10 9 8 8 8 7 7 7 7 7 7 7 7 7 7 8 8 9 10 10 11 11 11 12 12 12 13 13 14 15 16 16 17 17
7 8 9 10 10 10 11 11 12 13 14 14 14 15 15 15 15 16 15 15 15 14 15 15 15 16 16 16 17 17 17 17 17 17 17 17 16 16 16 16 16 16 15 15 14 14 14 13 12 11 10 10 9 9 8 8 8 7 7 7 7 7 7 7 7 7 7 7 8 8 9 10 10 11 11 11 12 12 12 13 14 15 16 16 16
7 8 9 9 10 11 11 12 13 13 14 15 15 15 16 16 16 16 15 15 15 14 14 15 15 15 16 16 16 16 17 17 17 17 16 16 16 16 16 16 16 16 16 15 15 14 14 13 12 11 10 10 9 9 9 8 8 8 7 7 7 7 7 7 6 6 6 6 6 7 8 8 9 10 10 11 11 11 12 12 13 14 14 15 16
7 8 8 9 10 11 11 12 13 13 14 15 15 16 16 16 16 15 15 15 15 14 14 14 15 15 15 16 16 16 16 16 16 16 16 16 16 16 15 15 15 15 16 15 15 15 14 13 12 11 11 10 10 9 9 9 9 8 8 7 7 7 6 6 6 6 6 6 6 6 7 7 8 9 9 10 11 11 12 12 13 13 13 14 15
7 8 8 9 10 11 11 12 13 14 14 15 16 16 17 16 16 15 14 14 14 14 14 14 14 15 15 15 16 16 16 15 16 16 16 16 16 16 15 15 15 15 15 15 15 15 14 13 12 12 11 10 10 9 9 9 9 9 9 8 8 8 7 7 7 6 7 7 7 7 7 7 7 8 8 9 10 11 11 12 12 13 13 14 15
7 8 8 9 10 10 11 12 13 14 15 15 16 16 16 16 16 15 15 14 14 14 13 14 14 15 15 16 16 16 16 15 15 16 16 17 16 16 16 15 15 15 15 15 15 15 15 14 13 12 11 11 10 10 10 10 10 10 10 10 9 9 8 8 8 7 7 7 7 7 8 8 7 7 8 8 9 10 11 11 12 12 13 14 14
7 8 8 9 10 11 12 13 14 14 15 15 16 16 15 15 15 15 14 15 15 14 14 14 14 15 15 16 16 16 15 15 15 16 16 17 17 16 16 16 16 15 15 15 15 15 15 14 13 12 12 11 11 11 10 10 10 10 11 11 10 10 9 9 8 8 8 8 8 8 8 8 8 8 8 8 8 9 9 10 11 11 12 13 14
8 8 9 9 10 11 12 13 14 14 15 15 15 15 15 14 14 14 14 15 15 15 15 15 15 16 16 16 16 16 16 15 16 16 16 16 16 16 16 16 16 16 16 16 16 16 15 15 14 13 12 11 11 11 11 11 11 11 11 11 11 11 10 10 9 9 9 8 8 8 8 8 8 8 8 8 8 8 9 9 10 10 11 12 12
8 9 9 10 10 11 12 13 14 14 15 15 15 14 14 14 14 14 15 15 16 16 17 17 17 17 16 16 16 16 16 16 16 16 16 16 16 16 17 17 16 16 16 16 16 16 16 15 14 14 13 12 11 11 11 11 11 11 11 11 11 11 10 10 10 10 9 9 9 8 8 8 7 7 7 7 7 8 8 8 9 10 10 10 11
9 9 10 10 11 12 13 13 14 14 15 15 14 14 13 14 14 15 15 16 16 17 17 18 18 17 17 16 16 16 17 16 16 16 16 16 16 16 17 17 16 16 16 16 16 16 16 16 15 14 13 12 12 12 12 12 11 11 11 11 11 11 11 11 10 10 10 10 9 9 9 8 8 8 7 7 7 8 8 8 8 9 9 9 10
9 10 10 11 12 13 13 14 14 15 15 15 14 13 14 14 15 15 16 16 17 17 18 18 18 18 18 17 16 16 16 16 16 16 16 16 16 17 17 17 16 16 17 17 17 16 16 16 16 15 14 13 12 12 12 12 11 11 11 11 11 11 11 11 11 11 11 10 10 10 9 9 8 8 8 8 8 8 8 8 8 8 8 8 9
10 11 11 12 13 13 14 14 15 15 15 14 14 14 14 14 15 16 16 17 17 18 18 18 19 18 18 18 17 17 17 17 17 17 17 17 17 17 16 16 16 16 17 17 17 17 17 17 16 15 14 13 13 12 12 12 12 11 11 10 10 10 11 11 11 11 11 11 11 10 10 10 9 9 9 9 9 9 8 8 8 8 8 8 9
10 11 12 13 13 14 14 15 15 15 15 14 14 14 14 15 15 16 17 17 18 18 18 18 18 18 18 18 18 18 18 18 18 17 17 17 17 17 16 16 16 16 17 17 17 17 17 17 17 16 16 15 14 13 13 13 12 11 11 10 10 10 11 11 11 11 11 11 11 10 10 10 10 9 9 9 9 9 9 9 9 8 8 8 8
11 12 13 14 14 15 15 15 15 15 15 14 14 14 14 15 16 17 17 17 17 18 17 17 17 17 18 18 18 18 18 18 18 18 17 17 17 17 17 17 16 16 16 17 18 18 18 18 18 17 16 16 15 14 14 13 13 12 11 11 10 10 10 11 11 11 11 11 11 11 10 10 10 10 10 9 9 9 9 9 9 8 8 8 8
12 13 14 14 15 15 15 15 15 15 15 15 15 15 15 16 16 17 17 17 17 17 17 17 17 17 17 18 18 18 18 18 18 18 18 17 17 18 17 17 17 16 16 17 17 18 18 18 18 18 17 16 16 15 14 14 13 12 11 11 10 10 10 10 10 10 10 11 11 10 10 10 10 10 10 10 10 10 10 9 9 8 8 8 7
13 14 14 15 15 15 15 15 16 16 15 15 15 15 16 16 17 17 17 17 17 17 16 16 16 16 17 17 17 18 18 18 18 18 18 17 17 18 18 18 17 17 17 17 17 18 18 18 18 18 17 16 16 15 15 14 13 12 11 11 11 10 10 10 10 10 10 10 10 10 10 10 10 10 10 10 10 10 10 10 9 9 8 8 8
14 15 15 16 16 16 16 16 16 16 15 15 15 16 16 17 17 17 17 17 17 16 16 15 16 16 17 17 18 18 18 18 18 18 18 18 18 18 18 18 17 17 17 17 17 18 18 18 18 18 17 16 15 15 15 14 13 12 11 10 10 10 10 10 9 9 9 9 10 10 10 10 11 11 11 10 10 10 10 10 10 10 9 9 9
15 15 15 16 16 16 16 15 15 16 16 16 16 16 16 17 17 17 17 17 16 16 15 16 16 16 17 17 18 18 18 18 18 18 18 18 18 18 18 18 18 17 17 17 17 17 18 18 18 17 17 16 15 15 14 13 12 11 10 9 9 9 9 9 9 9 9 9 9 9 10 10 11 11 11 11 11 10 10 10 10 10 10 10 9
15 15 15 16 16 15 15 15 15 15 16 16 16 16 16 16 17 17 17 17 16 16 16 16 16 17 17 17 18 18 18 19 19 19 18 18 18 18 18 18 18 17 16 16 17 17 17 17 17 17 16 15 15 14 14 12 11 9 8 8 8 9 9 9 9 8 8 8 9 9 10 10 10 11 11 11 11 11 11 10 11 11 11 11 10
15 15 16 16 16 16 16 16 16 16 16 16 16 16 16 16 16 17 17 17 16 16 16 17 17 17 17 17 17 18 18 18 19 19 18 18 17 17 18 18 18 17 16 16 16 17 17 17 16 16 16 15 14 14 13 12 10 9 8 8 8 8 8 8 8 8 8 8 8 9 9 10 10 10 11 11 11 11 11 11 11 11 11 11 11
15 16 16 17 17 17 17 17 16 16 16 16 16 16 16 16 16 17 17 17 17 17 17 17 17 17 17 17 17 17 17 18 19 19 19 18 18 17 18 18 17 17 17 16 16 16 16 16 15 15 15 15 14 14 13 11 9 8 7 7 7 7 7 7 7 6 7 7 7 8 8 9 10 10 10 11 11 11 11 11 11 11 11 11 11
15 16 17 17 17 17 17 17 16 16 16 16 16 16 16 16 16 17 18 18 17 17 16 16 17 17 17 17 18 18 18 18 18 19 19 19 18 18 18 18 17 17 17 16 16 16 16 15 15 15 15 14 14 13 12 11 9 8 7 7 7 7 7 6 6 6 6 6 6 7 8 8 9 9 10 10 10 11 11 11 11 11 11 11 12
16 16 17 17 17 17 17 17 16 16 16 16 17 17 17 17 17 18 18 18 17 17 17 17 17 17 17 18 18 18 18 18 18 19 19 19 19 19 19 18 18 17 17 16 16 15 15 15 14 14 14 14 13 13 12 10 9 8 7 7 7 7 7 6 6 6 6 6 6 6 7 7 8 8 9 9 10 10 11 11 11 11 12 12 12
16 16 17 17 17 18 17 17 16 17 17 17 18 18 18 18 18 18 18 18 18 17 17 17 18 18 18 18 18 19 19 19 19 19 19 19 19 20 19 18 18 17 17 16 16 15 15 14 14 14 14 13 13 12 11 10 9 8 8 7 7 7 7 7 7 6 6 6 6 6 7 7 7 8 8 9 9 9 10 10 11 11 11 12 12
Wind_Direction
316 316 316 316 316 317 318 318 318 318 318 318 318 318 317 316 315 314 314 314 314 314 314 314 314 314 313 312 310 307 303 301 299 297 296 295 295 295 294 294 293 292 291 291 289 287 286 285 284 283 282 279 275 271 269 266 265 263 263 262 261 259 257 256 253 251 253 253 251 251 251 249 248 248 249 249 248 249 248 249 248 243 240 238 237
315 315 315 316 317 318 318 319 319 320 321 321 321 320 319 318 316 315 315 314 314 315 315 315 314 313 312 311 309 306 303 301 299 298 297 296 295 294 294 293 293 292 292 291 290 288 287 287 285 283 281 279 277 274 271 268 265 263 261 261 261 260 258 257 254 253 253 252 251 250 249 249 247 248 249 247 248 248 245 246 245 246 247 236 237
314 314 316 317 318 319 319 320 321 322 323 324 323 323 321 318 317 316 316 315 315 316 317 317 316 315 313 313 311 308 305 303 301 299 298 297 296 294 293 293 292 292 291 291 290 289 289 288 287 285 282 279 277 275 273 270 267 264 261 259 259 259 258 257 256 254 253 252 252 250 248 249 247 247 249 247 247 246 244 245 241 244 248 233 238
314 315 318 319 320 321 321 322 323 324 325 325 325 324 323 321 320 319 319 319 319 320 321 321 322 321 319 318 317 314 311 308 306 304 302 301 299 297 294 293 292 291 291 290 290 289 288 288 287 285 283 279 278 277 276 274 270 266 262 259 258 257 256 256 255 254 252 251 252 251 249 248 247 247 247 245 246 245 242 244 240 239 243 235 242
315 318 320 321 322 323 323 324 325 326 327 327 327 326 326 327 327 326 326 326 327 328 328 329 330 330 327 324 324 322 320 317 315 313 311 308 307 303 299 296 294 293 292 291 289 288 287 286 285 284 282 279 279 278 277 277 273 269 265 261 259 256 254 254 254 254 253 250 250 251 250 249 247 247 246 244 245 244 241 242 240 239 239 237 245
319 321 322 323 324 324 325 326 326 327 328 329 329 330 332 335 335 336 335 335 335 336 337 338 338 337 334 330 329 328 326 324 322 321 319 317 316 313 308 304 300 297 295 294 291 288 286 285 284 283 282 280 279 278 277 277 275 272 268 263 260 256 253 252 252 252 252 251 250 250 251 251 249 248 247 244 244 244 243 242 241 240 240 239 244
322 322 322 323 324 325 326 327 328 329 330 331 333 336 339 341 341 341 341 341 342 343 344 345 345 344 341 337 334 332 330 330 328 326 325 323 322 321 318 314 310 306 303 299 296 291 287 285 284 283 283 281 279 277 276 277 276 273 269 264 261 258 255 252 251 251 252 252 252 251 250 251 251 249 249 246 244 245 245 244 243 242 242 242 244
323 322 322 323 325 326 327 329 331 333 334 336 338 341 342 343 343 343 344 345 346 347 348 349 348 349 348 345 342 339 337 336 334 330 329 328 328 327 326 323 319 317 313 308 304 299 292 288 286 284 284 283 281 279 276 274 275 274 270 264 261 261 258 255 253 252 253 253 253 253 251 251 251 251 250 248 246 246 246 245 245 244 243 243 244
322 322 323 325 326 328 330 333 335 337 339 340 342 344 344 344 344 345 346 348 349 349 350 350 350 351 352 351 350 348 345 342 338 335 332 331 331 330 330 328 326 324 321 317 313 308 301 294 290 287 287 286 284 282 277 273 272 272 271 267 263 262 260 259 257 255 254 254 253 253 252 252 252 252 251 250 248 247 246 245 245 245 244 242 242
323 324 326 327 329 331 334 336 338 340 341 342 344 345 347 347 348 348 349 350 351 351 351 351 351 352 352 353 352 351 350 347 344 341 337 334 332 332 331 330 329 327 325 322 318 315 310 302 297 293 290 287 286 283 279 275 271 271 271 269 266 264 262 261 261 258 257 256 254 253 252 252 253 251 251 251 249 247 246 246 245 245 244 242 241
326 327 328 330 332 334 336 337 339 340 342 344 345 347 348 350 351 352 352 352 352 352 352 351 351 351 351 351 352 351 351 350 349 346 342 338 335 333 332 331 330 328 326 323 320 317 314 308 304 299 293 288 286 283 280 277 274 272 271 270 269 267 264 262 261 260 259 257 254 253 251 251 251 250 249 250 249 248 247 245 245 245 244 243 241
329 331 332 333 334 334 335 337 339 341 343 346 349 351 353 354 356 357 357 356 356 356 355 354 352 351 349 349 350 350 350 351 351 349 346 342 338 335 333 331 330 328 326 324 321 317 314 311 307 303 299 294 289 283 280 278 276 274 272 271 270 268 265 263 261 260 258 256 253 251 250 249 249 249 249 249 249 249 248 245 244 244 243 243 242
334 335 335 334 333 334 336 338 341 344 347 351 354 356 358 360 1 1 1 1 1 0 359 357 355 352 349 347 347 347 348 350 351 350 348 345 341 337 334 331 330 329 326 323 321 318 315 312 309 306 303 300 294 288 283 279 277 274 272 269 268 267 266 264 262 259 256 254 252 250 248 248 248 248 249 249 250 250 249 247 245 245 244 243 243
338 338 337 335 335 335 338 341 345 348 350 354 356 358 0 1 2 1 1 1 1 0 359 358 356 353 350 347 346 345 346 347 348 348 347 345 343 340 336 332 330 328 325 323 320 317 314 311 310 309 306 301 297 294 289 284 280 276 272 267 265 264 264 262 260 258 254 252 251 248 246 247 248 248 248 249 250 250 250 249 248 247 245 243 242
340 340 341 342 342 342 342 344 348 350 352 355 356 357 358 358 359 358 358 358 358 358 357 356 354 352 349 347 346 345 344 344 345 346 346 345 343 341 337 334 330 327 324 322 319 316 313 310 308 309 307 303 300 298 294 288 284 281 276 270 264 261 261 259 257 254 252 251 251 248 247 247 247 247 248 248 249 250 251 250 249 248 246 243 242
344 345 347 349 350 350 350 351 353 354 355 356 355 354 354 355 355 355 355 356 356 356 356 355 353 352 350 347 345 343 342 342 342 344 345 345 344 341 339 336 333 329 325 322 319 316 313 310 307 306 305 304 302 300 296 292 289 285 281 276 268 261 259 259 257 255 253 252 252 250 249 249 248 248 249 249 249 251 251 250 249 248 246 243 242
349 351 353 356 358 359 359 359 358 358 357 357 356 355 354 354 353 353 353 354 355 355 355 354 353 352 350 348 346 344 342 341 340 342 343 344 344 342 340 338 335 332 328 325 321 317 314 311 308 306 304 303 302 300 296 293 291 289 286 282 275 266 260 258 257 256 255 253 252 252 252 253 251 250 250 250 251 252 251 249 248 247 245 242 242
353 355 357 359 1 3 3 2 1 359 358 358 358 358 358 356 354 353 352 352 353 354 354 354 354 352 351 350 348 347 344 341 340 340 341 342 343 343 341 340 338 336 332 328 325 321 317 314 312 309 305 303 302 301 297 293 290 289 289 286 282 275 267 261 257 255 255 254 253 253 254 254 253 251 250 250 251 251 250 248 247 246 244 242 242
357 359 359 359 0 2 2 2 1 360 358 358 358 359 358 356 354 353 352 351 351 352 353 354 354 353 353 351 350 348 347 345 342 341 340 340 340 341 341 341 340 340 337 333 329 324 319 317 316 314 309 305 303 301 298 294 289 289 290 288 285 281 273 266 260 257 255 254 254 254 253 253 252 250 249 249 249 249 248 248 246 244 243 243 242
3 2 0 1 1 1 1 2 1 0 359 358 358 357 357 355 354 353 352 351 351 352 352 354 354 353 353 353 351 350 349 347 344 342 341 340 339 339 340 339 339 339 339 337 334 328 324 321 319 317 314 310 307 304 298 293 291 291 291 289 287 283 276 269 264 260 257 255 254 254 253 253 251 249 248 247 247 247 247 247 245 243 242 242 242
10 7 6 7 6 3 2 2 0 360 359 357 357 356 356 355 354 353 352 351 350 350 351 353 353 353 353 353 353 352 350 348 345 342 342 342 342 341 340 340 338 338 338 337 335 330 327 325 323 321 318 314 311 308 301 295 293 292 292 290 287 282 276 270 268 266 261 258 256 254 253 252 250 249 248 247 247 247 247 246 245 243 242 242 242
14 11 11 10 7 5 2 360 359 359 357 356 354 353 353 353 351 351 350 348 348 348 349 350 351 352 352 352 352 352 350 349 347 345 343 344 344 343 343 342 341 338 337 336 335 331 327 325 325 327 325 320 315 311 306 302 300 297 294 291 287 282 276 272 271 270 266 262 260 257 255 253 250 249 250 249 248 248 247 246 245 245 243 242 242
14 11 10 8 5 3 0 357 357 356 355 354 352 350 349 348 347 346 345 344 344 345 346 348 348 349 351 352 351 351 350 350 349 347 346 346 345 344 343 344 343 341 339 337 336 334 330 325 326 328 328 327 322 314 308 307 307 305 301 296 288 281 277 275 273 271 268 265 263 259 256 254 252 251 251 251 250 250 250 248 247 246 245 244 244
9 5 4 3 1 0 358 357 356 354 353 352 350 347 346 345 344 344 343 342 341 342 343 345 345 346 348 349 350 350 350 350 350 348 347 347 347 345 344 344 344 343 342 339 337 335 331 327 326 328 328 329 326 318 311 309 309 310 309 303 293 284 279 277 275 272 269 266 263 260 257 255 254 253 253 252 251 251 251 250 248 247 246 245 245
2 359 357 357 356 356 355 355 354 353 351 350 348 346 344 342 342 342 342 341 340 340 340 341 342 343 344 345 347 348 349 349 349 349 348 348 349 347 345 344 344 343 343 342 338 335 332 330 329 328 328 328 325 318 311 311 312 314 315 310 302 293 287 282 278 274 271 268 264 262 259 257 256 255 255 255 254 252 250 248 247 247 246 245 246
358 356 354 352 351 351 351 351 351 350 349 347 346 344 342 341 340 340 340 340 339 339 339 339 339 340 341 342 344 345 347 348 349 349 349 349 350 349 347 346 345 343 344 343 340 337 335 331 328 327 327 328 326 318 311 312 314 316 318 315 308 302 298 292 285 278 274 270 266 264 262 260 259 258 258 257 257 254 251 248 247 246 245 245 247
355 354 352 350 349 349 349 349 349 348 347 345 343 342 340 339 338 337 337 337 337 337 337 337 338 338 339 340 341 343 345 346 348 348 349 349 349 350 350 349 349 347 345 343 341 340 339 334 328 326 326 328 326 319 312 311 311 312 314 315 313 310 307 302 294 286 278 272 267 265 263 262 261 261 260 259 258 256 253 249 247 247 246 246 247
349 351 351 350 349 349 349 349 349 348 347 346 345 343 341 340 338 337 336 335 335 334 335 335 336 338 339 339 340 341 342 344 346 347 347 347 348 349 350 351 351 350 348 344 341 340 341 338 331 326 325 325 323 317 312 309 308 310 311 312 314 315 313 309 303 295 287 278 271 267 265 263 262 262 261 260 259 258 255 251 248 248 248 247 247
345 348 349 350 351 350 349 350 350 350 349 348 348 346 344 341 339 337 336 336 334 333 333 334 336 338 339 338 339 340 341 343 344 344 345 345 346 347 348 350 351 350 349 347 342 340 341 340 335 328 325 324 321 316 311 308 306 307 309 310 311 314 317 317 313 307 299 291 282 275 269 265 264 263 262 261 260 258 256 253 251 249 249 248 248
339 342 345 348 349 349 349 349 350 350 350 349 348 346 345 343 340 337 337 336 335 334 334 334 335 337 338 338 338 339 339 341 343 343 343 344 344 344 345 347 349 350 350 348 345 341 340 339 336 331 326 323 320 315 309 306 304 303 305 306 308 310 316 320 320 315 309 304 297 289 280 273 268 265 263 262 261 260 258 256 254 252 251 250 250
331 334 338 341 344 345 346 347 347 348 349 348 347 346 346 345 344 342 339 338 338 338 338 336 336 337 338 339 340 339 338 340 342 343 344 345 344 344 344 345 347 348 349 348 345 342 340 338 336 333 328 323 320 314 307 302 300 298 298 299 300 303 307 312 316 314 309 306 304 299 292 284 277 271 267 264 262 261 260 258 257 255 253 252 252
327 329 331 335 338 340 343 345 346 346 346 346 346 346 347 348 350 350 347 345 345 345 344 342 342 342 342 342 343 343 343 342 343 343 344 345 345 344 343 344 344 345 346 346 344 342 341 338 335 332 329 325 321 315 307 301 297 294 292 291 292 294 297 301 305 305 303 301 301 299 297 292 287 280 275 270 265 262 261 260 258 257 255 254 254
324 327 330 333 336 337 339 342 343 343 344 344 345 347 348 351 354 355 354 353 353 352 350 349 348 347 347 346 346 347 347 345 344 344 345 345 345 345 344 344 343 343 343 344 342 341 341 339 334 330 328 326 323 318 310 303 297 293 289 287 287 288 290 293 296 298 298 297 297 296 295 293 291 287 283 278 273 267 264 262 260 258 257 257 256
318 322 326 330 332 333 335 337 339 340 342 343 344 346 348 351 354 354 354 355 356 355 353 352 350 349 348 347 347 347 347 346 345 345 345 346 346 345 345 344 343 342 341 341 340 339 340 339 335 330 327 325 323 321 315 308 302 296 291 287 285 284 285 287 290 292 293 293 293 294 294 292 291 290 289 286 280 274 270 267 264 262 261 260 259
309 314 319 323 326 328 331 334 336 337 339 341 341 343 347 349 349 349 350 352 352 350 348 347 347 346 345 344 344 344 345 345 345 345 345 345 345 345 344 343 342 341 340 340 339 339 339 338 336 332 328 324 323 321 318 312 306 300 295 289 284 281 280 282 284 286 288 288 288 290 292 291 290 291 292 290 285 280 277 274 271 269 267 265 263
304 309 314 319 322 324 327 330 332 334 336 338 338 340 342 343 343 344 345 346 346 345 344 343 343 342 341 340 341 341 342 343 344 344 344 344 344 344 343 341 341 340 340 340 339 338 338 338 337 334 330 326 322 320 319 316 310 304 298 292 284 278 277 278 280 282 285 285 285 285 287 287 287 290 292 291 288 285 282 281 279 276 272 269 266
301 305 310 315 319 321 323 326 328 329 332 335 335 335 336 337 338 339 340 341 342 342 341 340 340 339 339 340 340 339 339 341 342 343 343 342 341 341 341 341 340 340 340 339 339 337 337 336 336 335 334 329 323 320 319 317 314 309 303 296 286 278 276 277 278 280 282 283 282 281 281 280 281 285 288 289 290 288 286 287 287 281 274 272 270
298 302 305 309 314 318 321 323 324 327 330 332 332 331 332 333 334 336 337 338 339 339 339 339 338 337 338 340 340 339 338 338 339 340 341 340 340 339 339 340 339 339 339 339 339 337 337 336 335 335 334 331 325 320 318 317 316 314 310 302 291 281 276 276 277 279 280 281 280 278 276 275 276 280 282 285 288 286 285 289 291 285 279 279 276
297 300 301 304 310 315 318 319 321 324 327 329 328 328 329 331 332 333 334 335 335 336 337 338 337 337 337 338 339 339 338 337 336 336 337 338 338 338 337 337 338 338 338 338 338 337 336 336 334 333 332 329 325 320 317 314 313 314 313 307 297 286 279 277 277 278 278 279 279 277 273 271 271 274 277 281 284 283 282 286 289 284 282 285 283
295 298 299 302 307 312 315 317 318 321 324 324 323 324 327 329 329 330 331 331 332 334 335 337 337 337 338 338 337 337 338 337 336 335 335 335 336 336 336 335 335 335 336 337 336 336 335 335 334 332 330 328 325 320 316 313 311 311 312 308 301 292 285 281 278 277 276 276 278 277 273 269 268 268 271 276 280 279 279 285 288 284 282 285 287
294 297 299 302 305 309 312 314 315 317 320 320 317 319 323 326 327 328 329 330 331 332 333 335 336 337 338 337 335 335 335 336 336 335 334 333 333 333 333 333 333 333 333 334 335 335 334 334 334 332 330 328 325 321 317 313 311 310 309 307 302 297 292 287 281 277 274 273 275 276 274 270 267 266 267 271 275 275 276 281 284 282 281 285 288
295 297 299 302 305 307 310 311 312 315 318 316 314 315 319 322 324 326 327 328 329 329 331 332 334 335 336 335 333 332 333 334 334 335 334 333 332 331 331 331 331 331 331 332 333 333 333 333 333 332 331 329 326 322 317 313 309 307 305 304 301 298 296 292 286 280 275 272 273 274 274 271 269 267 266 268 271 271 273 276 278 276 278 284 289
295 297 300 302 304 306 309 309 310 312 314 313 311 312 315 319 321 322 323 324 326 327 328 330 332 335 337 337 335 334 333 332 332 333 333 334 333 331 329 329 330 330 330 330 331 331 331 331 332 332 331 330 328 324 319 314 310 307 303 301 300 299 297 295 291 284 278 273 272 272 272 270 269 268 267 268 270 270 271 272 272 271 272 278 284
297 298 299 301 302 304 306 307 309 310 311 310 309 311 314 317 318 319 320 322 323 324 325 327 330 333 336 337 338 337 336 334 333 332 332 333 332 332 330 329 328 328 328 328 329 330 330 331 332 332 331 329 328 327 323 319 315 311 305 301 299 299 298 298 294 288 282 277 274 272 270 269 269 268 267 267 269 270 271 271 270 267 267 271 276
299 300 300 301 302 302 304 306 307 308 308 308 309 310 315 318 319 319 319 320 321 321 322 324 327 330 332 334 336 337 338 337 336 335 333 332 332 332 332 331 329 327 326 327 328 329 330 331 332 333 332 330 329 328 327 323 319 315 310 305 302 301 301 301 298 292 286 281 277 274 271 270 270 269 267 266 267 269 271 271 270 266 264 266 270
300 301 302 302 303 303 304 306 306 305 305 306 307 310 315 318 319 320 320 319 319 319 320 322 324 326 328 330 332 335 337 339 338 337 335 334 333 333 334 333 332 330 327 327 327 328 330 331 333 335 335 333 331 330 329 326 323 319 315 310 306 304 303 301 299 295 290 286 282 277 274 273 273 271 268 266 265 267 269 270 269 267 265 265 267
299 300 301 301 300 301 302 304 303 303 303 304 305 308 313 316 318 319 319 318 318 318 319 320 322 323 325 327 329 333 336 339 340 339 337 335 334 334 335 335 334 332 330 328 328 328 330 331 332 335 336 335 332 331 331 329 326 324 320 314 309 306 303 300 297 293 290 287 285 281 278 276 274 273 270 267 264 265 267 268 268 267 266 265 266
299 300 300 300 299 299 299 300 300 300 301 301 302 306 310 312 315 317 318 317 316 316 318 319 321 322 323 325 326 329 333 336 338 339 339 337 336 335 334 334 334 333 331 329 328 329 330 331 332 334 336 336 334 333 332 331 329 327 323 318 313 309 305 302 297 293 290 289 288 286 284 281 277 275 273 269 264 264 266 268 269 267 266 266 268
300 301 301 301 301 300 299 298 298 298 300 300 302 304 306 308 311 314 316 315 315 314 315 317 319 321 322 322 324 326 329 331 334 337 338 338 337 335 333 332 332 332 331 329 328 329 330 332 332 332 334 335 335 334 333 331 329 326 322 318 315 312 309 306 302 300 298 298 297 296 294 290 285 281 277 272 267 265 267 269 269 268 265 265 268
299 300 302 303 304 303 301 298 297 298 299 299 301 303 303 304 307 311 313 313 312 312 313 314 316 318 319 320 321 322 324 326 328 332 334 336 336 335 333 331 329 330 330 329 328 328 329 330 331 332 332 334 335 335 333 329 325 322 318 315 313 311 309 306 303 302 302 303 304 305 305 302 296 290 284 277 272 269 269 270 271 269 266 265 267
297 299 301 303 305 305 303 299 297 296 297 297 299 301 302 302 304 307 309 309 308 309 310 311 312 313 316 318 319 320 320 322 323 326 329 331 333 334 333 331 329 329 329 328 327 326 327 328 329 330 331 332 333 333 331 327 322 317 314 311 309 307 305 303 301 300 300 300 303 306 309 309 306 300 292 285 279 274 272 273 273 271 268 267 268